Starlink 35136

operational
NORAD ID: 65537 Int'l Des: 2025-200 Owner: SPXS Country: US Constellation: starlink
LEOCIRCULARRETROGRADE

关于 Starlink 35136

正在加载描述...

实时位置

正在加载3D地球...

即将过境

高度历史

Altitude vs Time

uPlot chart will show altitude changes over time

两行轨道根数

1 65537U 25200T 25304.76443399 -.00197675 00000-0 -52966-2 0 9991
2 65537 97.6048 12.4356 0003220 53.5455 306.6086 15.38756833 9622
Epoch: Oct 31, 2025 • Age: 17 hours

当前状态

高度 451.4 km
速度 7.64 km/s
星下点 9.81°N, 157.48°E
发射日期 Sep 6, 2025
运行时间 0.1 years
类型 internet

技术详情

分类 Payload
质量 575.00 kg
干质量 530.00 kg
总质量 575.00 kg
长度 0.30 m
直径 4.10 m
跨度 29.00 m
形状 Box + pan
制造商 SPXS
平台类型 Starlink V2MO
阶段状态 In Orbit
所有者/国家 SPXS/US

大型星座

Loading constellations...